Home   Weather   Kiruna   Past weeks
Flag for Sweden

Past Weather in Kiruna, Sweden — Yesterday and Last 2 Weeks

Now
45 °F

Drizzle. Cloudy.


Feels Like: 41 °F
Forecast: 59 / 47 °F
Wind: 7 mph from Northeast

Location: Kiruna Airport

Current Time: Jun 4, 2020 at 6:39:25 am

Latest Report: Jun 4, 2020 at 5:50 am


Visibility: 2 mi

Pressure: 29.83 "Hg (27.96 "Hg at 532m altitude)

Humidity: 93%

Dew Point: 43 °F

Location of KirunaLocation

Past Weather in Kiruna — Graph

°F

Kiruna Temperature Yesterday

Maximum temperature yesterday: 50 °F (at 1:50 pm)
Minimum temperature yesterday: 41 °F (at 2:50 am)
Average temperature yesterday: 46 °F

High & Low Weather Summary for the Past Weeks

 TemperatureHumidityPressure
High72 °F (Jun 1, 4:20 pm)100% (Jun 4, 5:20 am)30.51 "Hg (Jun 4, 5:20 am)
Low27 °F (May 22, 2:50 am)29% (Jun 1, 5:20 pm)29.83 "Hg (Jun 4, 4:50 am)
Average47 °F58%30.15 "Hg
* Reported May 20 5:20 am — Jun 4 5:20 am, Kiruna. Weather by CustomWeather, © 2020

Note: Actual official high and low records may vary slightly from our data, if they occured in-between our weather recording intervals... More about our weather records

Kiruna Weather History for the Previous 24 Hours

Scroll right to see more
 ConditionsComfort  
Time TempWeatherWind HumidityBarometerVisibility
5:20 am
Thu, Jun 4
45 °FDrizzle. Fog.8 mph100%29.83 "Hg2 mi
4:50 am45 °FDrizzle. Dense fog.6 mph93%29.83 "Hg2 mi
4:20 am45 °FFog.6 mph93%29.86 "Hg3 mi
3:50 am45 °FDrizzle. Fog.5 mph93%29.86 "Hg3 mi
3:20 am45 °FDrizzle. Low clouds.5 mph87%29.86 "Hg4 mi
2:50 am45 °FDrizzle. Mostly cloudy.5 mph87%29.86 "HgN/A
1:50 am46 °FOvercast.2 mph76%29.86 "HgN/A
1:20 am46 °FDrizzle. Mostly cloudy.5 mph71%29.86 "HgN/A
12:50 am46 °FMostly cloudy.5 mph71%29.86 "HgN/A
12:20 am46 °FOvercast.3 mph71%29.89 "HgN/A
11:50 pm
Wed, Jun 3
46 °FMostly cloudy.5 mph66%29.89 "HgN/A
11:20 pm46 °FOvercast.3 mph66%29.89 "HgN/A
10:50 pm48 °FOvercast.3 mph66%29.89 "HgN/A
10:20 pm48 °FMostly cloudy.5 mph62%29.89 "HgN/A
9:50 pm48 °FMostly cloudy.5 mph62%29.89 "HgN/A
9:20 pm50 °FOvercast.5 mph62%29.89 "HgN/A
8:50 pm50 °FOvercast.7 mph58%29.89 "HgN/A
8:20 pm50 °FOvercast.7 mph58%29.89 "HgN/A
7:50 pm50 °FOvercast.7 mph58%29.89 "HgN/A
7:20 pm50 °FOvercast.8 mph58%29.89 "HgN/A
6:50 pm50 °FOvercast.6 mph62%29.89 "HgN/A
6:20 pm50 °FOvercast.6 mph62%29.89 "HgN/A
5:50 pm50 °FOvercast.6 mph62%29.89 "HgN/A
5:20 pm50 °FOvercast.3 mph58%29.92 "HgN/A
4:50 pm50 °FOvercast.5 mph58%29.92 "HgN/A
4:20 pm50 °FOvercast.7 mph62%29.92 "HgN/A
3:50 pm50 °FOvercast.3 mph62%29.92 "HgN/A
3:20 pm50 °FOvercast.5 mph58%29.92 "HgN/A
2:50 pm50 °FOvercast.6 mph62%29.92 "HgN/A
2:20 pm50 °FOvercast.5 mph58%29.92 "HgN/A
1:50 pm50 °FOvercast.2 mph58%29.92 "HgN/A
1:20 pm48 °FOvercast.3 mph62%29.92 "HgN/A
12:50 pm48 °FPartly sunny.3 mph62%29.95 "HgN/A
12:20 pm48 °FPartly sunny.3 mph62%29.95 "HgN/A
11:50 am46 °FOvercast.5 mph66%29.95 "HgN/A
11:20 am46 °FMostly cloudy.3 mph66%29.95 "HgN/A
10:50 am46 °FOvercast.3 mph66%29.95 "HgN/A
10:20 am45 °FMore clouds than sun.5 mph76%29.95 "HgN/A
9:50 am43 °FOvercast.5 mph81%29.95 "HgN/A
9:20 am43 °FOvercast.5 mph81%29.98 "HgN/A
8:50 am43 °FMore clouds than sun.6 mph76%29.98 "HgN/A
8:20 am41 °FMostly cloudy.7 mph81%29.98 "HgN/A
7:50 am41 °FOvercast.7 mph81%29.98 "HgN/A
7:20 am41 °FOvercast.7 mph81%29.98 "HgN/A
6:50 am41 °FOvercast.7 mph81%29.98 "HgN/A
6:20 am41 °FMostly cloudy.7 mph81%29.98 "HgN/A
Weather by CustomWeather, © 2020

See weather overview

Advertising